�������l�o���
Date,Time,MP-1(��Sv/h),MP-2(��Sv/h),MP-3(��Sv/h),MP-4(��Sv/h),MP-5(��Sv/h),MP-6(��Sv/h),MP-7(��Sv/h),MP-8(��Sv/h),����,����(m/s),���J
2022/10/28,00:00,0.570,0.820,0.522,1.040,0.726,0.334,0.587,0.553,��,1.2,��
2022/10/28,00:10,0.571,0.820,0.521,1.040,0.727,0.335,0.589,0.554,���k��,1.1,��
2022/10/28,00:20,0.570,0.823,0.522,1.041,0.724,0.335,0.586,0.553,�k��,0.8,��
2022/10/28,00:30,0.571,0.822,0.521,1.041,0.728,0.334,0.588,0.555,��,0.6,��
2022/10/28,00:40,0.570,0.824,0.520,1.041,0.726,0.334,0.588,0.553,���쐼,2.0,��
2022/10/28,00:50,0.571,0.823,0.520,1.038,0.727,0.335,0.587,0.553,���쐼,1.5,��
2022/10/28,01:00,0.571,0.823,0.521,1.043,0.728,0.334,0.588,0.553,��,2.2,��
2022/10/28,01:10,0.572,0.824,0.519,1.040,0.726,0.335,0.588,0.553,���쐼,2.3,��
2022/10/28,01:20,0.571,0.823,0.520,1.041,0.726,0.335,0.588,0.554,���쐼,2.0,��
2022/10/28,01:30,0.570,0.823,0.521,1.039,0.727,0.335,0.589,0.554,���쐼,1.9,��
2022/10/28,01:40,0.571,0.823,0.522,1.040,0.725,0.336,0.588,0.554,���쐼,3.0,��
2022/10/28,01:50,0.570,0.822,0.522,1.040,0.726,0.333,0.588,0.554,���쐼,3.6,��
2022/10/28,02:00,0.571,0.819,0.522,1.040,0.726,0.333,0.588,0.554,���쐼,3.4,��
2022/10/28,02:10,0.570,0.821,0.521,1.041,0.726,0.334,0.587,0.554,���쐼,2.6,��
2022/10/28,02:20,0.569,0.823,0.521,1.042,0.726,0.334,0.588,0.554,���k��,2.5,��
2022/10/28,02:30,0.570,0.823,0.521,1.038,0.726,0.335,0.586,0.554,��,3.3,��
2022/10/28,02:40,0.572,0.821,0.521,1.041,0.728,0.334,0.587,0.554,��,3.4,��
2022/10/28,02:50,0.571,0.822,0.519,1.039,0.728,0.334,0.587,0.555,��,3.7,��
2022/10/28,03:00,0.571,0.822,0.522,1.038,0.727,0.334,0.588,0.554,��,2.9,��
2022/10/28,03:10,0.571,0.822,0.522,1.041,0.728,0.334,0.589,0.552,���쐼,1.9,��
2022/10/28,03:20,0.571,0.822,0.520,1.041,0.729,0.334,0.587,0.555,��,2.3,��
2022/10/28,03:30,0.572,0.820,0.521,1.041,0.729,0.333,0.587,0.553,��,2.8,��
2022/10/28,03:40,0.571,0.822,0.520,1.040,0.728,0.334,0.589,0.553,��,3.3,��
2022/10/28,03:50,0.571,0.821,0.520,1.040,0.727,0.334,0.587,0.553,��,3.1,��
2022/10/28,04:00,0.570,0.822,0.519,1.042,0.727,0.334,0.586,0.555,��,3.6,��
2022/10/28,04:10,0.571,0.822,0.523,1.038,0.726,0.335,0.588,0.554,���k��,1.9,��
2022/10/28,04:20,0.570,0.822,0.521,1.042,0.727,0.334,0.586,0.554,���k��,1.2,��
2022/10/28,04:30,0.569,0.821,0.521,1.040,0.727,0.335,0.588,0.554,���k��,2.0,��
2022/10/28,04:40,0.572,0.821,0.520,1.039,0.727,0.334,0.586,0.554,�k,0.6,��
2022/10/28,04:50,0.570,0.821,0.522,1.039,0.725,0.334,0.588,0.555,�k,0.8,��
2022/10/28,05:00,0.571,0.819,0.520,1.041,0.728,0.333,0.587,0.553,�k��,1.2,��
2022/10/28,05:10,0.570,0.823,0.520,1.041,0.727,0.334,0.586,0.553,�k��,1.2,��
2022/10/28,05:20,0.570,0.822,0.522,1.041,0.727,0.334,0.587,0.554,�k�k��,1.5,��
2022/10/28,05:30,0.571,0.820,0.520,1.042,0.726,0.334,0.588,0.554,�k�k��,3.4,��
2022/10/28,05:40,0.571,0.824,0.522,1.040,0.728,0.334,0.587,0.554,�k�k��,3.5,��
2022/10/28,05:50,0.571,0.821,0.520,1.041,0.728,0.334,0.587,0.553,�k,2.9,��
2022/10/28,06:00,0.570,0.821,0.522,1.039,0.726,0.333,0.586,0.555,�k�k��,3.9,��
2022/10/28,06:10,0.570,0.821,0.521,1.040,0.725,0.334,0.587,0.555,�k�k��,4.2,��
2022/10/28,06:20,0.569,0.822,0.521,1.039,0.727,0.334,0.587,0.554,�k�k��,5.0,��
2022/10/28,06:30,0.570,0.821,0.521,1.039,0.727,0.334,0.587,0.553,�k�k��,4.3,��
2022/10/28,06:40,0.568,0.822,0.520,1.040,0.728,0.333,0.586,0.555,�k�k��,4.1,��
2022/10/28,06:50,0.570,0.824,0.521,1.040,0.729,0.334,0.589,0.554,�k�k��,4.1,��
2022/10/28,07:00,0.570,0.820,0.521,1.041,0.724,0.334,0.588,0.554,�k�k��,4.0,��
2022/10/28,07:10,0.572,0.821,0.521,1.040,0.727,0.334,0.588,0.554,�k�k��,3.5,��
2022/10/28,07:20,0.572,0.821,0.521,1.041,0.727,0.334,0.588,0.554,�k�k��,3.5,��
2022/10/28,07:30,0.572,0.822,0.519,1.040,0.726,0.334,0.586,0.556,�k�k��,3.5,��
2022/10/28,07:40,0.569,0.821,0.519,1.041,0.726,0.335,0.588,0.553,�k�k��,3.3,��
2022/10/28,07:50,0.572,0.821,0.520,1.038,0.725,0.333,0.587,0.554,�k�k��,3.6,��
2022/10/28,08:00,0.571,0.820,0.521,1.039,0.726,0.334,0.587,0.554,�k�k��,4.0,��
2022/10/28,08:10,0.572,0.820,0.521,1.042,0.726,0.332,0.589,0.554,�k�k��,4.0,��
2022/10/28,08:20,0.572,0.821,0.521,1.039,0.727,0.331,0.589,0.556,�k�k��,4.1,��
2022/10/28,08:30,0.573,0.819,0.523,1.042,0.727,0.332,0.588,0.554,�k�k��,3.5,��
2022/10/28,08:40,0.573,0.819,0.522,1.040,0.727,0.334,0.588,0.554,�k�k��,2.6,��
2022/10/28,08:50,0.573,0.819,0.522,1.039,0.727,0.332,0.587,0.555,�k�k��,1.7,��
2022/10/28,09:00,0.573,0.819,0.521,1.043,0.726,0.332,0.588,0.556,�k,1.9,��
2022/10/28,09:10,0.572,0.817,0.520,1.040,0.729,0.334,0.588,0.556,�k�k��,1.9,��
2022/10/28,09:20,0.572,0.819,0.522,1.043,0.727,0.334,0.587,0.554,�k�k��,2.6,��
2022/10/28,09:30,0.572,0.820,0.524,1.040,0.729,0.334,0.588,0.555,�k�k��,3.7,��
2022/10/28,09:40,0.573,0.820,0.522,1.042,0.728,0.335,0.588,0.556,�k�k��,3.3,��
2022/10/28,09:50,0.572,0.820,0.522,1.040,0.727,0.336,0.587,0.556,�k�k��,3.5,��
2022/10/28,10:00,0.570,0.819,0.522,1.041,0.724,0.336,0.588,0.556,�k�k��,3.4,��
2022/10/28,10:10,0.572,0.819,0.521,1.042,0.726,0.333,0.587,0.555,�k�k��,2.6,��
2022/10/28,10:20,0.573,0.820,0.519,1.043,-,0.334,0.587,0.554,�k�k��,3.3,��
2022/10/28,10:30,0.571,0.819,0.522,1.040,-,0.334,0.588,0.555,�k�k��,3.8,��
2022/10/28,10:40,0.571,0.819,0.520,1.040,-,0.333,0.587,0.556,�k�k��,3.6,��
2022/10/28,10:50,0.574,0.819,0.520,1.043,-,0.332,0.586,0.554,�k�k��,3.3,��
2022/10/28,11:00,0.573,0.819,0.519,1.043,-,0.335,0.588,0.554,�k�k��,3.0,��
2022/10/28,11:10,0.572,0.820,0.520,1.042,-,0.334,0.590,0.555,�k��,2.9,��
2022/10/28,11:20,0.573,0.821,0.522,1.039,-,0.336,0.587,0.555,�k��,3.2,��
2022/10/28,11:30,0.573,0.819,0.520,1.040,-,0.333,0.588,0.556,�k�k��,3.2,��
2022/10/28,11:40,0.573,0.821,0.520,1.042,-,0.334,0.586,0.556,�k��,3.1,��
2022/10/28,11:50,0.570,0.822,0.520,1.041,-,0.333,0.589,0.556,�k,3.5,��
2022/10/28,12:00,0.574,0.823,0.519,1.040,-,0.334,0.587,0.557,�k��,3.0,��
2022/10/28,12:10,0.574,0.822,0.521,1.041,-,0.335,0.588,0.555,�k��,2.6,��
2022/10/28,12:20,0.573,0.824,0.521,1.042,-,0.335,0.587,0.556,�k,3.1,��
2022/10/28,12:30,0.574,0.823,0.522,1.040,-,0.334,0.589,0.554,�k�k��,2.5,��
2022/10/28,12:40,0.573,0.820,0.522,1.041,-,0.336,0.588,0.554,�k�k��,2.5,��
2022/10/28,12:50,0.573,0.823,0.521,1.043,0.727,0.335,0.587,0.554,�k��,3.0,��
2022/10/28,13:00,0.573,0.823,0.522,1.042,0.724,0.336,0.588,0.554,�k�k��,2.6,��
2022/10/28,13:10,0.573,0.821,0.522,1.040,0.728,0.336,0.589,0.555,�k��,2.6,��
2022/10/28,13:20,0.575,0.821,0.521,1.042,0.726,0.334,0.588,0.554,�k�k��,3.2,��
2022/10/28,13:30,0.573,0.820,0.522,1.043,0.728,0.334,0.587,0.556,�k�k��,3.0,��
2022/10/28,13:40,0.574,0.821,0.521,1.042,0.729,0.335,0.589,0.555,�k�k��,3.3,��
2022/10/28,13:50,0.574,0.822,0.521,1.043,0.729,0.334,0.587,0.554,�k�k��,2.6,��
2022/10/28,14:00,0.575,0.821,0.519,1.042,0.728,0.333,0.589,0.555,�k�k��,2.5,��
2022/10/28,14:10,0.571,0.821,0.522,1.041,0.727,0.334,0.588,0.554,�k�k��,2.2,��
2022/10/28,14:20,0.573,0.820,0.520,1.043,0.727,0.334,0.590,0.554,�k�k��,2.3,��
2022/10/28,14:30,0.572,0.825,0.522,1.044,0.730,0.335,0.587,0.554,�k�k��,2.3,��
2022/10/28,14:40,0.572,0.821,0.522,1.042,0.728,0.335,0.588,0.554,�k�k��,2.6,��
2022/10/28,14:50,0.572,0.824,0.522,1.042,0.729,0.333,0.587,0.554,�k�k��,2.8,��
2022/10/28,15:00,0.575,0.822,0.522,1.042,0.728,0.332,0.587,0.554,�k,2.3,��
2022/10/28,15:10,0.575,0.823,0.522,1.043,0.729,0.333,0.587,0.555,�k,2.2,��
2022/10/28,15:20,0.573,0.823,0.522,1.042,0.730,0.333,0.588,0.553,�k,2.2,��
2022/10/28,15:30,0.573,0.822,0.521,1.042,0.730,0.334,0.588,0.554,�k,2.0,��
2022/10/28,15:40,0.572,0.824,0.521,1.041,0.729,0.337,0.590,0.554,�k,2.0,��
2022/10/28,15:50,0.573,0.823,0.522,1.043,0.730,0.336,0.588,0.555,�k,1.7,��
2022/10/28,16:00,0.574,0.825,0.524,1.043,0.728,0.336,0.588,0.557,�k�k��,2.2,��
2022/10/28,16:10,0.572,0.823,0.521,1.042,0.729,0.336,0.588,0.557,�k�k��,2.3,��
2022/10/28,16:20,0.571,0.823,0.521,1.042,0.730,0.337,0.590,0.557,�k�k��,3.0,��
2022/10/28,16:30,0.574,0.826,0.519,1.042,0.727,0.335,0.590,0.557,�k��,2.8,��
2022/10/28,16:40,0.572,0.827,0.521,1.043,0.726,0.336,0.590,0.556,�k��,2.6,��
2022/10/28,16:50,0.574,0.827,0.523,1.042,0.729,0.336,0.590,0.557,�k��,3.6,��
2022/10/28,17:00,0.575,0.825,0.524,1.043,0.730,0.336,0.589,0.557,�k��,3.3,��
2022/10/28,17:10,0.574,0.827,0.524,1.045,0.732,0.335,0.589,0.555,�k��,3.5,��
2022/10/28,17:20,0.576,0.826,0.524,1.041,0.731,0.336,0.590,0.558,�k��,3.3,��
2022/10/28,17:30,0.575,0.824,0.523,1.043,0.731,0.334,0.590,0.555,�k��,2.3,��
2022/10/28,17:40,0.575,0.826,0.524,1.040,0.731,0.335,0.589,0.556,���k��,2.2,��
2022/10/28,17:50,0.575,0.824,0.523,1.040,0.731,0.335,0.589,0.557,�k��,2.8,��
2022/10/28,18:00,0.576,0.830,0.523,1.041,0.731,0.336,0.588,0.555,�k��,3.0,��
2022/10/28,18:10,0.578,0.826,0.523,1.043,0.732,0.336,0.588,0.556,�k��,2.6,��
2022/10/28,18:20,0.576,0.828,0.522,1.042,0.730,0.337,0.589,0.556,�k��,2.6,��
2022/10/28,18:30,0.574,0.827,0.522,1.044,0.732,0.336,0.588,0.556,���k��,2.0,��
2022/10/28,18:40,0.576,0.827,0.522,1.043,0.730,0.334,0.588,0.556,���k��,2.2,��
2022/10/28,18:50,0.576,0.825,0.523,1.043,0.729,0.336,0.590,0.556,���k��,2.2,��
2022/10/28,19:00,0.576,0.827,0.522,1.044,0.731,0.335,0.590,0.555,���k��,2.3,��
2022/10/28,19:10,0.576,0.824,0.524,1.044,0.730,0.335,0.587,0.555,���k��,2.0,��
2022/10/28,19:20,0.576,0.824,0.523,1.041,0.730,0.336,0.588,0.555,���k��,2.0,��
2022/10/28,19:30,0.576,0.825,0.523,1.043,0.731,0.335,0.589,0.555,���k��,1.5,��
2022/10/28,19:40,0.576,0.826,0.524,1.042,0.729,0.335,0.588,0.555,��,1.7,��
2022/10/28,19:50,0.576,0.827,0.524,1.041,0.730,0.335,0.587,0.557,��,1.7,��
2022/10/28,20:00,0.575,0.827,0.523,1.043,0.732,0.335,0.588,0.554,��,1.5,��
2022/10/28,20:10,0.577,0.825,0.523,1.043,0.731,0.335,0.589,0.556,��,0.9,��
2022/10/28,20:20,0.575,0.824,0.523,1.042,0.729,0.336,0.588,0.555,���k��,0.9,��
2022/10/28,20:30,0.578,0.825,0.523,1.044,0.732,0.337,0.589,0.556,��,0.6,��
2022/10/28,20:40,0.576,0.826,0.523,1.043,0.730,0.336,0.589,0.556,��,0.6,��
2022/10/28,20:50,0.576,0.825,0.522,1.044,0.731,0.335,0.589,0.557,���쐼,0.8,��
2022/10/28,21:00,0.575,0.826,0.522,1.043,0.730,0.336,0.588,0.554,���쐼,0.6,��
2022/10/28,21:10,0.575,0.825,0.522,1.042,0.731,0.335,0.589,0.556,���쐼,1.2,��
2022/10/28,21:20,0.576,0.825,0.523,1.044,0.730,0.336,0.589,0.556,���쐼,0.9,��
2022/10/28,21:30,0.576,0.827,0.525,1.042,0.730,0.335,0.589,0.556,�쐼,1.1,��
2022/10/28,21:40,0.575,0.827,0.523,1.042,0.731,0.335,0.588,0.556,�쐼,1.1,��
2022/10/28,21:50,0.577,0.825,0.524,1.042,0.730,0.336,0.590,0.555,�쐼,1.2,��
2022/10/28,22:00,0.575,0.824,0.523,1.041,0.728,0.335,0.589,0.556,�쐼,1.2,��
2022/10/28,22:10,0.576,0.825,0.522,1.043,0.731,0.336,0.589,0.555,�쐼,1.5,��
2022/10/28,22:20,0.574,0.826,0.523,1.042,0.729,0.336,0.588,0.555,��,2.6,��
2022/10/28,22:30,0.576,0.825,0.523,1.042,0.732,0.334,0.588,0.554,��,2.0,��
2022/10/28,22:40,0.575,0.826,0.523,1.043,0.730,0.336,0.587,0.556,���k��,1.7,��
2022/10/28,22:50,0.576,0.825,0.523,1.042,0.730,0.337,0.588,0.556,���k��,1.7,��
2022/10/28,23:00,0.575,0.825,0.523,1.043,0.730,0.337,0.589,0.555,�k��,2.3,��
2022/10/28,23:10,0.575,0.825,0.521,1.043,0.729,0.336,0.589,0.556,�k��,2.2,��
2022/10/28,23:20,0.576,0.825,0.523,1.044,0.730,0.336,0.589,0.555,�k��,3.5,��
2022/10/28,23:30,0.576,0.827,0.523,1.044,0.730,0.337,0.589,0.555,�k��,4.8,��
2022/10/28,23:40,0.578,0.826,0.523,1.043,0.732,0.334,0.587,0.555,�k��,4.2,��
2022/10/28,23:50,0.577,0.824,0.522,1.043,0.728,0.335,0.589,0.557,���k��,4.1,��
